AirNav   Air Wisconsin pilot careers
 
 708 users online  

8M6 Mc Ville Municipal Airport
Mc Ville, North Dakota, USA


FAA INFORMATION EFFECTIVE 12 OCTOBER 2017

Location

FAA Identifier: 8M6
Lat/Long: 47-46-13.1400N / 098-11-05.6900W
47-46.219000N / 098-11.094833W
47.7703167 / -98.1849139
(estimated)
Elevation: 1473 ft. / 449 m (estimated)
Variation: 07E (1985)
From city: 1 mile NW of MC VILLE, ND
Time zone: UTC -5 (UTC -6 during Standard Time)
Zip code: 58254

Airport Operations

Airport use: Open to the public
Activation date: 11/1947
Control tower: no
ARTCC: MINNEAPOLIS CENTER
FSS: GRAND FORKS FLIGHT SERVICE STATION
NOTAMs facility: GFK (NOTAM-D service available)
Attendance: UNATNDD
Wind indicator: yes
Segmented circle: no
Lights: ACTIVATE LIRL RY 13/31 - CTAF.

Airport Communications

CTAF: 122.9

Nearby radio navigation aids

VOR radial/distance  VOR name  Freq  Var
DVLr118/35.8DEVILS LAKE VOR/DME111.0007E

Airport Services

Parking: tiedowns
Airframe service: NONE
Powerplant service: NONE
Bottled oxygen: NONE
Bulk oxygen: NONE

Runway Information

Runway 18/36

Dimensions: 2500 x 90 ft. / 762 x 27 m
Surface: turf, in good condition
RUNWAY 18  RUNWAY 36
Latitude: 47-46.416333N47-46.005167N
Longitude: 098-10.989333W098-10.989333W
Elevation: 1473.0 ft.1473.0 ft.
Traffic pattern: leftleft
Markings: nonenone
Runway end identifier lights: nono
Obstructions: 19 ft. road, 40 ft. from runway, 2:1 slope to clear18 ft. road, 48 ft. from runway, 2:1 slope to clear
MULTIPLE 100' + BLDGS 1400 FT FM THLD; L AND R OF CNTRLN.

Runway 13/31

Dimensions: 2277 x 100 ft. / 694 x 30 m
200 FT TURF STWY ON NW END & 500 FT TURF STWY ON SE END.
Surface: turf, in good condition
TURF SFC ROLLING.
Runway edge lights: low intensity
RUNWAY 13  RUNWAY 31
Latitude: 47-46.381667N47-46.074500N
Longitude: 098-11.369500W098-11.051667W
Elevation: 1461.0 ft.1463.0 ft.
Traffic pattern: leftleft
Runway heading: 138 magnetic, 145 true318 magnetic, 325 true
Markings: nonenone
Runway end identifier lights: nono
Obstructions: 30 ft. trees, 115 ft. from runway, 125 ft. right of centerline, 3:1 slope to clear
RY 13 HAS ROAD 200 FT FM THLD; 125 FT L OF CNTRLN; APCH RATIO 10:1.
18 ft. bldg, 275 ft. from runway, 125 ft. left of centerline, 15:1 slope to clear

Airport Ownership and Management from official FAA records

Ownership: Publicly-owned
Owner: CITY OF MC VILLE
PO BOX 275
MC VILLE, ND 58254
Phone 701-322-4343
SHELLY CARLSON - CITY AUDITOR 701-322-4343
Manager: NEIL REITEN
PO BOX 275
MCVILLE, ND 58254
Phone (701) 739-1345

Airport Operational Statistics

Aircraft based on the field: 3
Single engine airplanes: 3
    
Aircraft operations: avg 68/month *
62% transient general aviation
37% local general aviation
1% air taxi
* for 12-month period ending 29 June 2016

Additional Remarks

CALL AMGR TO CONFIRM SNOW REMOVAL 701-270-2820.
RWY 18/36: +3' ROAD PENETRATES TRSN SFC 7:1 RATIO TO THE EAST.

Instrument Procedures

There are no published instrument procedures at 8M6.

Some nearby airports with instrument procedures:

5L0 - Lakota Municipal Airport (17 nm N)
S32 - Cooperstown Municipal Airport (21 nm S)
4V4 - Northwood Municipal Airport-Vince Field (24 nm E)
KRDR - Grand Forks Air Force Base (34 nm E)
KDVL - Devils Lake Regional Airport (36 nm NW)
 
Loc | Ops | Rwys | IFR | FBO | Links
Com | Nav | Svcs | Stats | Notes


 
Area around 8M6 (Mc Ville Municipal Airport)
 
Road maps at: MapQuest Bing Google
 
Aerial photo
WARNING: Photo may not be current or correct
Aerial photo of 8M6 (Mc Ville Municipal Airport)
Do you have a better or more recent aerial photo of Mc Ville Municipal Airport that you would like to share? If so, please send us your photo.

 
Sectional chart

 
Airport distance calculator
Flying to Mc Ville Municipal Airport? Find the distance to fly.

From to 8M6

Sunrise and sunset
Times for 22-Oct-2017
 Local
(UTC-5)
 Zulu
(UTC)
Morning civil twilight07:3212:32
Sunrise08:0313:03
Sunset18:3123:31
Evening civil twilight19:0300:03

Current date and time
Zulu (UTC)  22-Oct-2017 12:54:06
Local (UTC-5)  22-Oct-2017 07:54:06
 
METAR
KS32 
21nm S 
221235Z AUTO 24009KT 10SM CLR 02/M01 A2982 RMK AO2
KRDR 
34nm E 
221156Z AUTO 26012KT 10SM CLR 05/00 A2976 RMK AO2 SLP088 T00500002 10088 20050 52012
KDVL 
36nm NW 
221156Z AUTO 26017KT 10SM CLR 05/01 A2977 RMK AO2 SLP103 T00500006 10078 20044 51007
KGFK 
42nm E 
221153Z 24012KT 10SM CLR 06/01 A2976 RMK AO2 SLP081 T00610011 10100 20061 51011
TAF
KRDR 
34nm E 
221000Z 2210/2316 27012KT 9999 SKC QNH2970INS BECMG 2216/2217 23012G18KT 9999 SCT090 QNH2982INS BECMG 2218/2219 20015G25KT 9999 BKN090 620909 QNH2975INS BECMG 2221/2222 20012KT 9999 OVC070 WS015/27040KT 620709 QNH2968INS BECMG 2312/2313 28020G25KT 9999 OVC030 620309 QNH2979INS TX16/2221Z TN05/2211Z
KDVL 
36nm NW 
221128Z 2212/2312 25014KT P6SM SKC FM221600 24013G22KT P6SM SCT250 FM221800 23015G25KT P6SM SCT080 BKN200 FM222300 24015KT P6SM SCT030 BKN050 FM230600 27016KT P6SM BKN030
KGFK 
42nm E 
221128Z 2212/2312 24012KT P6SM SKC FM221500 23013G23KT P6SM SKC FM221800 21015G25KT P6SM SCT080 BKN200 FM230000 23013KT P6SM SCT030 BKN050
NOTAMs
Click for the latest NOTAMs
NOTAMs are issued by the DoD/FAA and will open in a separate window not controlled by AirNav.

 

 
 

Would you like to see your business listed on this page?

 If your business provides an interesting product or service to pilots, flight crews, aircraft, or users of the Mc Ville Municipal Airport, you should consider listing it here.  To start the listing process, click on the button below
 
Add a business
 

Other Pages about Mc Ville Municipal Airport

Update a link
 
Copyright © AirNav, LLC. All rights reserved. Privacy Policy  Contact